FW2452 Weather Reports


time (UTC)temp
C
wind
direction
speed
KPH
gust
KPH
rain 1hr
cm
rain 24hr
cm
rain mn
cm
humidity
%
barometer
mb
20260506013031 23 343 3.2 9.7 0.00 0.00 0.00 51 1007.9
20260506010032 24 13 3.2 9.7 0.00 0.00 0.00 49 1008.0
20260506003030 26 3 3.2 9.7 0.00 0.00 0.00 45 1007.9
20260506001546 26 320 4.8 14.5 0.00 0.00 0.00 43 1007.9
20260505234531 27 334 1.6 11.3 0.00 0.00 0.00 42 1008.0
20260505231606 27 344 3.2 12.9 0.00 0.00 0.00 44 1008.2
20260505230038 26 359 4.8 11.3 0.00 0.00 0.00 45 1008.3
20260505224533 26 10 4.8 14.5 0.00 0.00 0.00 45 1008.3
20260505221533 26 12 4.8 12.9 0.00 0.00 0.00 46 1008.6
20260505220107 26 18 4.8 14.5 0.00 0.00 0.00 46 1008.8
20260505214538 26 9 4.8 11.3 0.00 0.00 0.00 46 1008.9
20260505213028 25 15 4.8 14.5 0.00 0.00 0.00 46 1009.0
20260505211546 26 8 6.4 16.1 0.00 0.00 0.00 46 1009.1
20260505210039 26 1 4.8 12.9 0.00 0.00 0.00 46 1009.2
20260505204552 26 354 4.8 11.3 0.00 0.00 0.00 45 1009.3
20260505203039 25 335 3.2 12.9 0.00 0.00 0.00 46 1009.4
20260505201530 25 349 3.2 12.9 0.00 0.00 0.00 46 1009.5
20260505200038 25 337 3.2 12.9 0.00 0.00 0.00 46 1009.6
20260505194530 25 332 3.2 11.3 0.00 0.00 0.00 45 1009.8
20260505193035 25 334 1.6 14.5 0.00 0.00 0.00 47 1009.8
20260505190115 23 307 4.8 12.9 0.00 0.00 0.00 49 1010.0
20260505184557 22 323 4.8 12.9 0.00 0.00 0.00 51 1010.1
20260505183035 22 304 4.8 17.7 0.00 0.00 0.00 51 1010.2
20260505181536 22 307 4.8 17.7 0.00 0.00 0.00 52 1010.2
20260505174530 21 311 4.8 14.5 0.00 0.00 0.00 54 1010.3
20260505173030 21 324 4.8 14.5 0.00 0.00 0.00 55 1010.1
20260505171529 21 334 4.8 14.5 0.00 0.00 0.00 56 1010.1
20260505170029 20 330 4.8 14.5 0.00 0.00 0.00 57 1010.1
20260505163036 20 330 3.2 11.3 0.00 0.00 0.00 61 1010.1
20260505161535 19 37 1.6 12.9 0.00 0.00 0.00 63 1010.2
20260505151538 17 124 1.6 6.4 0.00 0.00 0.00 72 1010.0
20260505140107 11 209 0.0 0.0 0.00 0.00 0.00 88 1009.3
20260505130147 11 247 0.0 0.0 0.00 0.00 0.00 84 1008.4
20260505123033 12 247 0.0 1.6 0.00 0.00 0.00 83 1008.3
20260505120115 12 247 0.0 3.2 0.00 0.00 0.00 80 1008.2
20260505114533 13 247 0.0 1.6 0.00 0.00 0.00 79 1008.1
20260505113032 13 247 0.0 1.6 0.00 0.00 0.00 78 1008.0
20260505111532 13 294 0.0 3.2 0.00 0.00 0.00 75 1007.9
20260505100107 15 316 1.6 11.3 0.00 0.00 0.00 76 1007.4
20260505094648 14 282 0.0 6.4 0.00 0.00 0.00 74 1007.3
20260505093037 15 329 0.0 0.0 0.00 0.00 0.00 71 1007.2
20260505091539 15 339 0.0 11.3 0.00 0.00 0.00 68 1007.1
20260505090036 16 304 0.0 4.8 0.00 0.00 0.00 66 1007.1
20260505083031 17 308 0.0 4.8 0.00 0.00 0.00 64 1007.0
20260505081530 17 312 1.6 8.0 0.00 0.00 0.00 64 1007.0
20260505080030 17 294 1.6 9.7 0.00 0.00 0.00 64 1007.0
20260505074615 18 310 0.0 8.0 0.00 0.00 0.00 62 1006.9
20260505073032 18 310 1.6 11.3 0.00 0.00 0.00 61 1006.8
20260505071549 18 303 1.6 14.5 0.00 0.00 0.00 60 1006.6
20260505070031 18 292 1.6 11.3 0.00 0.00 0.00 59 1006.6
20260505064532 19 281 1.6 14.5 0.00 0.00 0.00 57 1006.5
20260505063030 20 280 3.2 11.3 0.00 0.00 0.00 56 1006.4
20260505060036 20 292 3.2 11.3 0.00 0.00 0.00 53 1006.1
20260505054534 20 281 4.8 20.9 0.00 0.00 0.00 51 1005.9
20260505051536 21 284 6.4 17.7 0.00 0.00 0.00 50 1005.8
20260505050128 21 286 6.4 25.7 0.00 0.00 0.00 48 1005.8
20260505040054 21 275 8.0 19.3 0.00 0.00 0.00 45 1004.9
20260505034549 22 275 8.0 25.7 0.00 0.00 0.00 45 1004.7
20260505031528 22 272 6.4 22.5 0.00 0.00 0.00 45 1004.4
20260505024704 23 264 6.4 19.3 0.00 0.00 0.00 43 1004.1
20260505023036 23 264 8.0 20.9 0.00 0.00 0.00 41 1004.0
20260505014533 26 254 4.8 20.9 0.00 0.00 0.00 37 1004.0